Location: Elk Forest
(39.5314°N, 75.8738°W)
Time: 02:32:31
(UTC-04:00)

Daily predictions for brighter satellites

Satellite Brightness Start Highest point End
(mag) Time Altitude Azimuth Time Altitude Azimuth Time Altitude Azimuth
Terra 3.6 00:04:36 23° W 00:04:36 23° W 00:08:13 10° NW
Cosmos 1833 Rocket 3.5 00:01:23 10° NW 00:06:17 41° W 00:06:17 41° W
Meteor 2-15 4.5 00:01:48 10° N 00:07:45 66° ENE 00:07:45 66° ENE
Meteor 1-13 Rocket 4.5 00:06:02 10° NNW 00:11:53 64° W 00:11:53 64° W
Cosmos 1943 Rocket 4.2 00:14:55 16° ENE 00:14:55 16° ENE 00:16:46 10° NE
NOSS 3-1 (A) 4.4 00:06:31 10° NNW 00:13:59 58° NE 00:16:17 45° ESE
H-2A R/B 4.1 00:15:17 18° W 00:15:50 18° W 00:19:31 10° NW
Lacrosse 5 3.2 00:22:41 33° NE 00:22:41 33° NE 00:25:29 10° NE
Meteor 2-4 Rocket 3.9 00:16:09 10° N 00:20:52 67° N 00:20:52 67° N
Cosmos 1821 Rocket 4.1 00:21:38 66° W 00:21:56 67° W 00:28:11 10° N
Cosmos 1605 Rocket 4.0 00:22:39 72° ENE 00:22:39 72° ENE 00:28:49 10° N
Meteor 1-11 Rocket 4.1 00:22:41 59° W 00:22:47 59° WNW 00:28:31 10° N
Cosmos 2082 Rocket 3.8 00:19:02 10° NW 00:23:06 23° W 00:23:06 23° W
Cosmos 2285 Rocket 4.0 00:24:14 76° ENE 00:24:14 76° ENE 00:30:16 10° NNE
Cosmos 1354 Rocket 4.5 00:18:51 10° NNW 00:23:13 58° NNE 00:23:13 58° NNE
H-2A R/B 4.0 00:26:18 10° NNE 00:29:00 35° NNE 00:29:00 35° NNE
ATLAS 2AS CENTAUR R/B 4.2 00:27:44 10° NNW 00:35:05 36° NE 00:39:40 20° E
Cosmos 1934 Rocket 4.2 00:38:39 58° W 00:38:39 58° W 00:44:36 10° N
Cosmos 2123 Rocket 4.0 00:33:07 10° N 00:39:07 73° WNW 00:39:07 73° WNW
NOSS 3-1 (C) 3.9 00:37:44 10° NW 00:45:25 81° WSW 00:46:09 74° S
ALOS 2 4.1 00:49:23 34° NNW 00:49:23 34° NNW 00:51:56 10° NNW
MOS 1-B Rocket 4.0 01:01:46 80° NNW 01:01:46 80° NNW 01:08:01 10° NNW
Cosmos 2369 Rocket 2.8 01:12:49 48° NW 01:12:49 48° NW 01:18:02 10° NNE
Cosmos 2219 4.4 01:16:26 10° N 01:21:33 34° ENE 01:22:16 32° ENE
CZ-2C R/B 3.6 01:29:51 53° N 01:29:51 53° N 01:33:38 10° N
CZ-2C R/B 3.1 01:25:08 10° N 01:29:23 57° NNW 01:29:23 57° NNW
Cosmos 2100 Rocket 4.2 01:44:59 59° WNW 01:44:59 59° WNW 01:51:10 10° N
SeaSat 1 3.2 01:47:23 47° NE 01:47:23 47° NE 01:51:54 10° NNW
Cosmos 1656 Rocket 4.0 01:52:01 60° ENE 01:52:01 60° ENE 01:56:48 10° NNE
Lacrosse 5 rocket 3.9 01:53:23 14° NNW 01:53:31 14° NNW 01:55:27 10° N
Cosmos 2061 Rocket 4.3 01:54:19 55° WNW 01:54:19 55° WNW 02:00:36 10° N
Cosmos 1943 Rocket 2.7 01:56:26 50° NW 01:56:26 50° NW 02:01:31 10° NNE
Cosmos 2233 Rocket 4.3 02:03:29 51° ESE 02:03:47 52° E 02:09:41 10° NNE
Lacrosse 5 3.9 02:01:49 18° WNW 02:03:53 23° NNW 02:07:53 10° NNE
NOSS 3-3 (A) 4.0 02:04:20 72° ESE 02:04:20 72° ESE 02:10:45 10° NE
NOSS 3-3 (C) 4.0 02:04:26 71° ESE 02:04:26 71° ESE 02:10:50 10° NE
Cosmos 968 Rocket 4.2 01:59:34 10° NNW 02:03:20 46° NW 02:03:20 46° NW
Cosmos 2016 Rocket 4.1 02:06:32 59° WNW 02:06:32 59° WNW 02:12:21 10° N
Cosmos 1241 Rocket 4.4 02:02:17 10° NNW 02:08:34 78° W 02:08:34 78° W
Cosmos 1802 Rocket 4.5 02:08:59 47° WNW 02:08:59 47° WNW 02:14:57 10° N
Cosmos 2098 Rocket 4.0 02:09:41 80° SSW 02:10:08 89° W 02:17:37 10° N
ATLAS 2AS CENTAUR R/B 2.9 02:18:40 10° NW 02:26:36 62° WSW 02:27:02 61° SW
Meteor 2-17 Rocket 4.3 02:28:56 74° SE 02:29:23 79° E 02:35:30 10° N
Cosmos 44 Rocket 4.4 02:25:10 10° NW 02:28:22 37° NW 02:28:22 37° NW
Cosmos 2208 Rocket 4.0 02:35:00 76° N 02:35:00 76° N 02:39:52 10° NNE
ERS-2 4.4 02:31:44 10° NE 02:33:47 20° ENE 02:33:47 20° ENE
ATLAS CENTAUR R/B 3.6 02:38:00 21° ESE 02:38:00 21° ESE 02:41:36 10° ENE
Cosmos 1725 Rocket 4.4 02:40:59 47° W 02:41:13 47° WNW 02:47:10 10° N
Milstar 3 Cent rocket 4.3 02:47:57 14° SE 02:47:57 14° SE 02:49:16 10° ESE
BREEZE-M DEB (TANK) 3.4 02:40:57 10° NW 02:46:35 42° N 02:46:35 42° N
Cosmos 1816 Rocket 4.5 02:40:39 10° NNW 02:46:49 62° W 02:47:09 61° WSW
CBERS-1 4.2 02:43:15 10° NNE 02:48:21 62° E 02:48:35 61° ESE
Tsikada Rocket 4.4 02:44:57 10° NNW 02:50:53 45° W 02:50:56 45° W
Meteor 1-15 Rocket 4.2 02:50:43 70° WSW 02:51:03 72° W 02:56:57 10° N
CZ-2D R/B 3.9 02:53:51 10° NE 02:58:12 24° E 03:00:39 18° SE
Cosmos 2082 4.3 02:54:06 10° NNW 02:59:38 54° ENE 03:03:04 23° SE
Cosmos 1697 Rocket 4.3 02:57:51 21° SE 02:59:43 24° ESE 03:04:10 10° NE
SL-16 R/B 3.9 02:54:15 10° SE 02:59:45 35° ENE 03:05:16 10° N
IRS-1C 4.2 02:54:49 10° NNE 03:00:08 65° ESE 03:00:55 57° SE
Cosmos 2228 4.0 03:02:32 38° NW 03:02:32 38° NW 03:05:46 10° N
Meteor 2-5 Rocket 4.3 02:56:19 10° N 03:02:07 58° ENE 03:04:43 32° SE
USA 161 4.1 03:03:09 20° NE 03:03:09 20° NE 03:04:49 10° NNE
SL-08 R/B 3.2 03:03:27 83° NW 03:03:27 83° NW 03:07:59 10° NNW
Cosmos 2219 4.3 03:00:39 10° NW 03:04:08 28° WNW 03:04:08 28° WNW
Cosmos 1980 Rocket 4.4 03:04:30 11° SE 03:07:25 16° E 03:10:48 10° ENE
Cosmos 2227 Rocket 2.3 03:05:55 10° NNW 03:11:37 72° ENE 03:14:30 30° SE
Cosmos 44 3.7 03:09:28 10° NW 03:13:39 50° WNW 03:13:39 50° WNW
IRS-P3 4.4 03:11:01 10° N 03:16:13 52° WNW 03:16:49 50° W
Cosmos 468 Rocket 4.1 03:16:49 56° SSE 03:17:44 69° ESE 03:22:52 10° NNE
ISS -0.3 03:15:29 10° NNW 03:17:45 17° NNE 03:20:00 10° ENE
NOSS 2-1 (D) 3.4 03:20:56 72° E 03:20:56 72° E 03:25:02 10° NE
NOSS 2-1 (C) 3.4 03:22:15 73° E 03:22:15 73° E 03:26:24 10° NE
SeaSat 1 4.4 03:27:11 16° WNW 03:27:11 16° WNW 03:28:35 10° WNW
Cosmos 2150 Rocket 4.0 03:19:57 10° NNW 03:25:12 76° ENE 03:27:36 32° SSE
Cosmos 2278 3.7 03:25:11 53° SW 03:26:23 69° WNW 03:32:04 10° NNE
Cosmos 2369 3.6 03:25:57 54° SW 03:27:13 77° WNW 03:32:55 10° NNE
GEOS 3 Rocket 4.3 03:22:13 10° SE 03:27:17 53° NE 03:32:18 10° NNW
Cosmos 1812 Rocket 3.8 03:27:58 55° WNW 03:27:58 55° WNW 03:32:21 10° N
Cosmos 2297 Rocket 2.3 03:27:39 10° NNW 03:33:20 77° ENE 03:38:13 14° SSE
UNK 4.4 03:33:44 21° SE 03:36:45 55° ENE 03:41:20 10° N
NOSS 2-1 (E) 3.2 03:36:52 75° WSW 03:37:09 83° WNW 03:41:37 10° NNE
Cosmos 405 Rocket 2.8 03:34:39 10° NNW 03:38:36 66° W 03:38:36 66° W
Cosmos 1898 Rocket 3.4 03:33:46 10° NNW 03:39:08 80° WSW 03:41:29 34° S
Cosmos 1766 4.0 03:38:10 38° SE 03:39:12 48° E 03:43:01 10° NNE
NPP 4.4 03:37:27 10° N 03:42:21 36° WNW 03:43:33 32° W
Cosmos 1464 Rocket 4.2 03:42:22 39° SW 03:44:22 54° W 03:50:34 10° N
Resurs 1-4 Rocket 2.3 03:39:36 10° NNE 03:44:51 64° ESE 03:47:24 30° S
BREEZE-M DEB (TANK) 3.4 03:44:29 37° SSW 03:46:02 52° SE 03:49:56 10° ENE
Meteor 1-22 Rocket 4.4 03:46:00 30° S 03:49:08 81° E 03:55:17 10° NNE
NOSS 3-4 (A) 4.0 03:42:25 10° NNW 03:49:26 75° NE 03:56:51 10° SE
NOSS 3-4 (C) 4.0 03:42:31 10° NNW 03:49:34 74° NE 03:57:01 10° SE
Cosmos 841 Rocket 3.9 03:48:13 29° S 03:50:46 57° ESE 03:55:57 10° NNE
Meteor 1-24 Rocket 3.7 03:46:49 10° N 03:52:33 88° E 03:57:00 18° S
UNKNOWN OBJECT B 3.6 03:49:13 10° NNE 03:53:00 46° E 03:54:34 29° SSE
ADEOS 3.9 03:48:07 10° N 03:53:09 50° WNW 03:54:45 37° WSW
Cosmos 1937 Rocket 3.4 03:48:32 10° NNW 03:53:43 83° WSW 03:57:29 19° SSE
Cosmos 1378 3.4 03:54:36 10° N 03:58:23 66° E 04:00:20 27° SSE
Cosmos 1763 Rocket 3.5 03:56:08 32° S 03:58:35 77° ESE 04:03:48 10° NNE
Okean 3 Rocket 3.7 03:55:10 10° NNW 03:59:27 52° W 04:00:20 44° SW
Cosmos 1953 3.5 03:57:40 19° SSE 04:00:10 40° E 04:03:59 10° NNE
Cosmos 1092 Rocket 4.2 03:55:35 10° N 04:01:52 74° E 04:08:11 10° SSE
ARIANE 5 R/B 2.6 03:57:48 10° N 04:02:53 65° WNW 04:05:07 33° SW
SL-24 R/B 4.4 04:00:37 31° S 04:02:54 61° WSW 04:07:29 10° NNW
EO 1 Del DPAF 3.2 04:02:20 29° SSE 04:04:16 88° ENE 04:08:10 10° NNW
BREEZE-M DEB (TANK) 3.9 04:04:08 19° W 04:07:26 39° NNW 04:10:03 10° NE
NOSS 7 (D) 4.3 04:06:57 55° SW 04:07:38 86° NW 04:11:02 10° NNE
ERS-2 3.6 04:05:23 10° NNW 04:08:22 23° WNW 04:08:37 23° WNW
Meteor 2-12 Rocket 4.4 04:05:20 28° SSW 04:08:41 70° W 04:14:44 10° N
CZ-4B R/B 4.5 04:06:08 10° NNE 04:11:14 36° E 04:16:13 10° SSE
CZ-2D R/B 3.9 04:08:35 10° NNE 04:12:53 63° E 04:15:52 20° S
Cosmos 1805 4.0 04:10:29 19° SSE 04:13:05 51° E 04:16:54 10° NNE
Cosmos 1441 Rocket 3.2 04:12:20 10° N 04:16:21 88° WSW 04:19:17 18° S
ATLAS CENTAUR R/B 2.3 04:14:21 29° WSW 04:16:38 50° NW 04:21:30 10° NNE
SME Rocket 4.3 04:14:20 23° SSW 04:17:34 52° W 04:25:11 10° NNW
Cosmos 1707 4.0 04:15:44 10° NW 04:18:54 24° W 04:18:54 24° W
GPS 2-04 Rocket1 3.0 04:19:02 36° SW 04:20:04 45° S 04:23:43 10° ESE
Cosmos 1656 4.2 04:23:00 24° WSW 04:26:04 46° WNW 04:31:31 10° N
IRS-1D 4.0 04:22:13 10° N 04:26:51 41° WNW 04:29:23 23° SW
Cosmos 2142 Rocket 4.5 04:22:20 13° S 04:27:53 88° E 04:34:03 10° N
Cosmos 540 Rocket 4.2 04:26:53 10° S 04:31:51 50° ESE 04:36:51 10° NNE
Cosmos 1500 Rocket 4.3 04:33:31 10° N 04:37:50 54° E 04:42:06 10° SSE
CZ-2D R/B 2.7 04:33:17 10° N 04:38:25 43° WNW 04:41:59 19° SW
ASTRO E2 4.1 04:38:07 20° SSW 04:38:39 21° SSW 04:41:43 10° SE
Okean O Rocket 1.6 04:36:10 10° NNE 04:40:35 87° ESE 04:44:41 12° SSW
Cosmos 332 Rocket 4.4 04:36:20 10° S 04:40:59 55° ESE 04:45:43 10° NNE
Cosmos 1076 Rocket 4.1 04:38:11 10° NNW 04:42:09 36° W 04:44:52 18° SSW
Cosmos 1743 Rocket 3.5 04:37:53 10° N 04:42:15 89° W 04:46:36 10° S
SL-16 R/B 3.1 04:38:42 15° SSW 04:43:18 35° W 04:48:55 10° NNW
Cosmos 1697 Rocket 3.2 04:39:37 19° SW 04:43:21 45° WNW 04:48:47 10° N
Cosmos 2279 Rocket 4.3 04:37:32 10° S 04:43:46 73° E 04:50:01 10° N
In-Cosmos 22 4.0 04:40:06 10° NNW 04:45:21 68° W 04:50:35 10° S
CZ-4B DEB 4.5 04:42:39 10° NNE 04:48:12 72° ESE 04:53:42 10° S
BREEZE-M DEB (TANK) 3.9 04:47:24 10° NW 04:50:04 35° NNE 04:54:53 10° E
Cosmos 1980 Rocket 2.3 04:46:17 16° SW 04:50:46 64° WNW 04:56:25 10° NNE
USA 81 4.0 04:46:33 10° S 04:51:49 82° W 04:57:08 10° N
ISS -3.4 04:51:18 10° NW 04:54:33 88° SW 04:57:48 10° SE
IRS-1C Rocket 4.1 04:49:32 10° N 04:54:46 66° WNW 04:59:57 10° SSW
Cosmos 2227 Rocket 3.8 04:52:01 10° WNW 04:54:56 14° W 04:56:12 13° WSW
Cosmos 1544 3.0 04:52:59 11° SSW 04:56:33 73° W 05:00:13 10° N
Cosmos 1655 Rocket 4.0 04:50:34 10° N 04:56:59 80° W 05:03:21 10° S
CZ-4B R/B 2.8 04:53:33 10° NNE 04:57:32 87° ESE 05:01:19 10° SSW
ADEOS II 3.6 04:52:56 10° NNE 04:57:47 36° E 05:02:36 10° SSE
Cosmos 2322 Rocket 2.7 04:55:45 10° S 05:01:15 61° ESE 05:06:47 10° NNE
Cosmos 371 Rocket 3.8 04:57:02 10° S 05:01:45 58° ESE 05:06:29 10° NNE
Cosmos 1674 2.8 04:58:35 10° N 05:02:22 76° E 05:06:07 10° S
PSLV R/B 4.2 05:01:06 10° N 05:04:48 43° WNW 05:08:16 11° SW
Centaur D-1A AC-31 4.2 04:45:17 13° SW 05:05:45 33° S 05:11:34 10° ESE
Cosmos-2242 3.9 05:02:54 13° SW 05:06:09 31° WNW 05:10:00 10° NNW
Cosmos 2221 4.0 05:03:08 10° SSE 05:07:05 38° E 05:11:05 10° NNE
Cosmos 1470 2.7 05:03:46 10° S 05:07:42 85° W 05:11:41 10° N
Cosmos 2297 Rocket 3.9 05:14:03 10° WNW 05:16:35 13° W 05:19:09 10° SW
Okean-O 2.8 05:17:32 10° NNE 05:22:00 80° ESE 05:26:25 10° S
Milstar 3 Cent rocket 3.8 05:16:58 10° WSW 05:22:21 35° S 05:31:42 10° ESE
Resurs 1-4 Rocket 3.9 05:20:58 10° NNW 05:24:07 16° WNW 05:27:16 10° W
PSLV R/B 3.6 05:20:17 10° NNE 05:24:32 84° ESE 05:28:47 10° SSW
Cosmos 372 Rocket 3.9 05:19:29 10° NNW 05:24:34 70° WSW 05:29:37 10° S
Meteor PRIRODA 4.3 05:21:48 10° NNE 05:25:25 57° E 05:29:02 10° S
Cosmos 1125 Rocket 4.0 05:22:23 10° NW 05:27:10 38° WSW 05:31:55 10° SSW
Cosmos 1842 Rocket 4.2 05:23:07 10° SSW 05:27:17 38° WNW 05:31:31 10° N
ARGOS Delta rocket 4.4 05:26:54 10° N 05:31:49 46° WNW 05:36:27 10° SW
CZ-3 R/B 3.4 05:17:07 10° WSW 05:38:57 40° S 05:45:08 10° ESE
